Regional Weather Roundup
Issued by NWS

Home | Current Version | Previous Version | Graphics & Text | Print | Product List | Glossary On
Versions: 1 2 3 4 5 6 7 8 9 10 11 12 13 14 15 16 17 18 19 20 21 22 23 24 25 26 27 28 29 30 31 32 33 34 35 36 37 38 39 40 41 42 43 44 45 46 47 48 49 50
000
ASUS43 KMPX 301901
RWRMN
WEATHER ROUNDUP FOR MINNESOTA
NATIONAL WEATHER SERVICE TWIN CITIES/CHANHASSEN MN
200 PM CDT SAT APR 30 2016


NOTE: "FAIR" INDICATES FEW OR NO CLOUDS BELOW 12,000 FEET WITH NO
SIGNIFICANT WEATHER AND/OR OBSTRUCTIONS TO VISIBILITY. N/A MEANS
CURRENT SKY AND/OR WEATHER CONDITIONS ARE NOT AVAILABLE.

MNZ060>063-068>070-302000-
   Twin Cities Metro

CITY           SKY/WX    TMP DP  RH WIND       PRES   REMARKS
TWIN CITIES    CLOUDY    57  33  40 NE21G29   30.05F
ST PAUL        CLOUDY    56  34  43 E13G26    30.06F
CRYSTAL        CLOUDY    59  32  36 NE17G26   30.05F
BLAINE         PTSUNNY   59  34  38 E18G25    30.07S
EDEN PRAIRIE   CLOUDY    58  33  39 NE17G26   30.02F
SOUTH ST PAUL  CLOUDY    57  33  41 E13G20    30.05F
LAKE ELMO      FAIR      55  36  47 E17G25    30.07F
$$
MNZ001>005-007-008-013>017-022>024-027-028-302000-
   Northwest Minnesota

CITY           SKY/WX    TMP DP  RH WIND       PRES   REMARKS
BEMIDJI        SUNNY     57  28  33 E16G23    30.18F
HALLOCK        SUNNY     61  27  27 NE17G28   30.26S
ROSEAU         SUNNY     55  34  44 E17G26    30.27F
WARROAD        SUNNY     52  32  46 NE14G22   30.29F
THIEF RVR FALL SUNNY     57  27  30 NE23      30.23F
CROOKSTON      SUNNY     61  27  27 E17G29      N/A
FOSSTON        SUNNY     57  27  30 NE17G26   30.20F
DETROIT LAKES  PTSUNNY   55  28  35 E21G28    30.15F
MOORHEAD       CLOUDY    61  28  29 NE16G29   30.16S
PARK RAPIDS    CLOUDY    56  26  31 NE17G25   30.15F
MAHNOMEN       FAIR      57  27  31 NE13G26   30.17S
$$
MNZ006-009>011-018-025>026-302000-
   North Central Minnesota

CITY           SKY/WX    TMP DP  RH WIND       PRES   REMARKS
BAUDETTE       SUNNY     56  25  30 NE15G28   30.26F
FLAG ISLAND    SUNNY     52  25  35 NE15G24   30.28F
INTL FALLS     SUNNY     53  27  36 NE7G21    30.25F
WASKISH        SUNNY     55  30  38 NE15G24   30.23S
BIG FORK       SUNNY     57  27  30 E15G24    30.21F
LONGVILLE      MOSUNNY   57  28  33 E8G18     30.16F
GRAND RAPIDS   MOSUNNY   55  27  33 NE12G18   30.20S
CRANE LAKE     MOSUNNY   52  27  37 E7        30.26F
ORR            SUNNY     55  21  26 CALM      30.21S
COOK           MOSUNNY   54  28  37 NE7G18    30.22F
WALKER         FAIR      54  30  39 E13       30.17F
$$
MNZ012-019>021-037-302000-
   Northeast Minnesota

CITY           SKY/WX    TMP DP  RH WIND       PRES   REMARKS
DULUTH         MOSUNNY   48  30  49 E22G35    30.22S
ELY            PTSUNNY   52  25  35 NE13G20   30.22F
HIBBING        SUNNY     54  27  35 NE13G22   30.19F
EVELETH        SUNNY     54  27  35 NE15G23   30.20F
DULUTH HARBOR  SUNNY     41  37  87 NE23      30.24S
TWO HARBORS    SUNNY     50  36  57 E20G30    30.22F
SILVER BAY     PTSUNNY   46  30  53 E15G22    30.24F
GRAND MARAIS     N/A     44  33  65 NE12      30.27F
G MARAIS ARPRT PTSUNNY   46  25  42 N15G22    30.24F
$$
MNZ029>031-032-039>041-046>048-054>057-064-302000-
   West Central Minnesota

CITY           SKY/WX    TMP DP  RH WIND       PRES   REMARKS
FERGUS FALLS   CLOUDY    57  30  35 E17G24    30.10F
WHEATON        CLOUDY    61  37  41 E20G29    30.11F
MORRIS         CLOUDY    55  37  50 E20G28    30.08F
ALEXANDRIA     CLOUDY    56  33  42 E23       30.10F
ELBOW LAKE     FAIR      55  35  46 NE17G23   30.12S
WADENA         MOSUNNY   57  30  35 NE15G25   30.12F
GLENWOOD       PTSUNNY   55  36  47 NE25G31   30.09F
APPLETON       CLOUDY    55  36  47 E16G25    30.05F
BENSON         CLOUDY    55  32  41 E15G24    30.06F
ORTONVILLE     CLOUDY    54  37  54 NE16G22   30.07F
MADISON        CLOUDY    54  36  50 E23G29    30.05F
WILLMAR        FAIR      55  36  47 NE22      30.06F
$$
MNZ033>034-036-042>043-049>051-058-059-302000-
   Central Minnesota

CITY           SKY/WX    TMP DP  RH WIND       PRES   REMARKS
ST CLOUD       CLOUDY    55  32  41 NE15G25   30.09F
SAUK CENTRE    FAIR      55  35  47 NE18G30   30.09F
PAYNESVILLE    CLOUDY    55  31  41 E17G28    30.08F
AITKIN         MOSUNNY   57  25  28 NE17G23   30.15S
PINE RIVER     SUNNY     57  34  41 NE15      30.17F
BRAINERD       PTSUNNY   55  31  39 NE17      30.14F
STAPLES        PTSUNNY   55  28  35 E8G22     30.13F
LONG PRAIRIE   FAIR      52  34  50 NE20G29   30.11F
LITTLE FALLS   PTSUNNY   54  32  43 NE13G21   30.12F
LITCHFIELD     CLOUDY    55  30  38 E18G24    30.05F
BUFFALO        CLOUDY    56  29  36 NE14G23   30.06F
MAPLE LAKE     CLOUDY    57  33  41 E21G28    30.08F
HUTCHINSON     SUNNY     56  40  54 NE20      30.04F
$$
MNZ037-044-045-052-053-302000-
   East Central Minnesota

CITY           SKY/WX    TMP DP  RH WIND       PRES   REMARKS
PRINCETON        N/A     59  34  38 N17       30.09F
MORA           MOSUNNY   55  34  44 E10G18    30.13F
CAMBRIDGE      MOSUNNY   61  39  44 N14G23    30.07F
RUSH CITY      MOSUNNY   58  35  41 NE17      30.11S
MOOSE LAKE     MOSUNNY   52  30  43 NE14G26   30.17F
HINCKLEY       FAIR      54  36  50 NE14G20   30.13S
CLOQUET        SUNNY     48  25  40 E16G31    30.20F
MCGREGOR       CLOUDY    54  32  43 E13G21    30.18S
$$
MNZ071>073-080-081-089-090-097-098-302000-
   Southwest Minnesota

CITY           SKY/WX    TMP DP  RH WIND       PRES   REMARKS
MONTEVIDEO     CLOUDY    54  36  50 E25       30.06F
GRANITE FALLS  CLOUDY    54  40  59 NE20      30.05S
CANBY          CLOUDY    53  40  61 NE21G28   30.04S
MARSHALL       CLOUDY    50  37  61 E20G28    30.01S
REDWOOD FALLS  CLOUDY    53  33  46 E20G29    30.02F
OLIVIA         CLOUDY    54  36  50 E15G23    30.03R
PIPESTONE      CLOUDY    45  39  81 E13G21    29.96S
WINDOM         LGT RAIN  45  39  81 NE17G25   29.99R
WORTHINGTON    RAIN      43  41  93 NE29G37   29.93S FOG
JACKSON        LGT SNOW  43  39  87 E22G30    29.98R
TRACY          CLOUDY    49  39  68 E15G23    30.01R
SLAYTON        LGT RAIN  44  41  91 E16G25    29.99R
$$
MNZ065>067-074>077-082>085-091>093-302000-
   South Central Minnesota

CITY           SKY/WX    TMP DP  RH WIND       PRES   REMARKS
MANKATO        CLOUDY    52  36  54 E17G29    29.99S
NEW ULM        CLOUDY    52  34  50 E12G22    30.01R
ST JAMES       LGT RAIN  43  36  75 NE12      30.01R
FAIRMONT       CLOUDY    43  34  70 NE17G23   29.98R
GLENCOE        CLOUDY    56  38  51 NE13G20   30.02F
FARIBAULT      CLOUDY    52  36  54 NE16G25   30.00F
OWATONNA       CLOUDY    50  36  57 NE18G25   29.99S
WASECA         CLOUDY    50  36  57 NE17G26   30.00R
ALBERT LEA     CLOUDY    43  43 100 E20G28    29.96S
$$
MNZ078>079-086>088-094>096-302000-
   Southeast Minnesota

CITY           SKY/WX    TMP DP  RH WIND       PRES   REMARKS
ROCHESTER      LGT RAIN  45  40  82 NE14      30.00S
RED WING       CLOUDY    57  34  41 E13G22    30.03F
STANTON        CLOUDY    55  36  50 E15G22    30.00F
DODGE CENTER   LGT RAIN  46  37  71 E23       29.99S
WINONA         CLOUDY    54  36  50 E16G22    30.02F
AUSTIN         RAIN      43  37  81 E20G28    29.96F
PRESTON        LGT RAIN  42  38  85 NE9G16    29.99S
$$
ABBREVIATIONS USED IN REMARKS
   TC - TEMPERATURES IN CELSIUS
  WCI - WIND CHILL INDEX
   HX - HEAT INDEX
  VSB - VISIBILITY
$$



USA.gov is the U.S. government's official web portal to all federal, state and local government web resources and services.